Powrót do katalogu

COSMOS 1275 DEB

AktywnyPO
NORAD 12733·DEBRIS·🇷🇺 Russia

Wystrzelony Jun 4, 1981 z Plesetsk Cosmodrome

Loading…

Następne Przeloty (najbliższe 24 godziny)

TLE

ŚwieżeSource: Space-Track

Epoka: Sep 14, 2026, 06:11 UTC

1 12733U 81053CA  26257.25774100  .00003213  00000-0  10103-2 0  9997
2 12733  82.8567 191.4156 0018875 354.3227   5.7748 14.40135729309308

Śledź COSMOS 1275 DEB w czasie rzeczywistym z AllMySat

Download on the App Store